Location: The Saddle
(36.8333°N, 80.3417°W)
Time: 15:50:13
(UTC-05:00)

A-11 Canister half - Pass Details

Date: 12 December 2023
Orbit: 1526 x 1682 km, 47.3° (Epoch: 01 March)

Event Time Altitude Azimuth Distance (km) Brightness Sun altitude
Rises 14:21:40 0° 180° (S) 4,843 12.5 23.1°
Reaches altitude 10° 14:26:05 10° 163° (SSE) 3,884 11.8 22.6°
Maximum altitude 14:32:18 19° 123° (ESE) 3,275 10.9 21.9°
Drops below altitude 10° 14:38:34 10° 84° (E) 3,939 10.8 21.2°
Sets 14:43:01 0° 68° (ENE) 4,936 11.2 20.7°
